This is the latest recevied weather packets stored in our database for station/object N0QV. If no packets are shown the sender has not sent any weather packets the latest 10 day(s).
| Time | Temp. | Humidity | Pressure | Rain* | Wind** | Luminosity | Snow |
|---|---|---|---|---|---|---|---|
| 1788295290 | 29.44° C | 67% | 1013.8 hPa | 0 mm | - | 287 W/m² | - |
| 1788294986 | 28.89° C | 69% | 1013.7 hPa | 0 mm | - | 262 W/m² | - |
| 1788294686 | 28.89° C | 71% | 1013.9 hPa | 0 mm | - | 195 W/m² | - |
| 1788294385 | 28.89° C | 68% | 1013.8 hPa | 0 mm | - | 167 W/m² | - |
| 1788294081 | 29.44° C | 67% | 1014 hPa | 0 mm | - | 121 W/m² | - |
| 1788293777 | 29.44° C | 66% | 1013.7 hPa | 0 mm | - | 199 W/m² | - |
| 1788293476 | 29.44° C | 66% | 1014 hPa | 0 mm | - | 219 W/m² | - |
| 1788293176 | 29.44° C | 67% | 1014.2 hPa | 0 mm | - | 189 W/m² | - |
| 1788292871 | 28.89° C | 69% | 1013.9 hPa | 0 mm | - | 207 W/m² | - |
| 1788292582 | 28.89° C | 67% | 1013.9 hPa | 0 mm | - | 220 W/m² | - |
| 1788292269 | 28.89° C | 67% | 1013.9 hPa | 0 mm | - | 184 W/m² | - |
| 1788291964 | 28.89° C | 66% | 1013.8 hPa | 0 mm | - | 195 W/m² | - |
| 1788291659 | 29.44° C | 66% | 1014.1 hPa | 0 mm | - | 182 W/m² | - |
| 1788291354 | 28.89° C | 66% | 1013.9 hPa | 0 mm | - | 256 W/m² | - |
| 1788291049 | 29.44° C | 67% | 1014.1 hPa | 0 mm | - | 251 W/m² | - |
| 1788290744 | 29.44° C | 63% | 1014.1 hPa | 0 mm | - | 247 W/m² | - |
| 1788290440 | 28.89° C | 64% | 1014.1 hPa | 0 mm | - | 277 W/m² | - |
| 1788290136 | 28.89° C | 64% | 1013.7 hPa | 0 mm | - | 263 W/m² | - |
| 1788289831 | 28.89° C | 67% | 1013.9 hPa | 0 mm | - | 256 W/m² | - |
| 1788289527 | 28.89° C | 68% | 1013.7 hPa | 0 mm | - | 167 W/m² | - |
| 1788289226 | 28.89° C | 65% | 1014.2 hPa | 0 mm | - | 82 W/m² | - |
| 1788288925 | 28.89° C | 66% | 1014.3 hPa | 0 mm | - | 0 W/m² | - |
| 1788288624 | 28.89° C | 65% | 1014.3 hPa | 0 mm | - | 109 W/m² | - |
| 1788288320 | 29.44° C | 65% | 1014.2 hPa | 0 mm | - | 138 W/m² | - |
| 1788288015 | 29.44° C | 64% | 1014.4 hPa | 0 mm | - | 272 W/m² | - |
* Rain latest hour (hover to see other rain measurements)
** Current wind speed in m/s (hover to see current wind gust speed)